Location: Blanot
(47.1713°N, 4.2340°E)
Time: 10:57:53
(UTC+00:00)

Cosmos 1656 - Pass Details

Date: 14 July 2020
Orbit: 800 x 848 km, 71.1° (Epoch: 05 August)

Event Time Altitude Azimuth Distance (km) Brightness Sun altitude
Rises 00:44:06 0° 335° (NNW) 3,319 7.6 -20.1°
Reaches altitude 10° 00:46:33 10° 339° (NNW) 2,385 6.8 -20.0°
Maximum altitude 00:51:56 60° 59° (ENE) 920 4.1 -19.7°
Enters shadow 00:56:32 14° 137° (SE) 2,095 5.5 -19.5°
